TimeAKDT,TemperatureF,Dew PointF,Humidity,Sea Level PressureIn,VisibilityMPH,Wind Direction,Wind SpeedMPH,Gust SpeedMPH,PrecipitationIn,Events,Conditions,WindDirDegrees,DateUTC
12:16 AM,32.0,28.4,87,30.09,10.0,Calm,Calm,-,N/A,,Clear,0,2012-10-07 08:16:00
12:36 AM,30.2,28.4,93,30.10,7.0,Calm,Calm,-,N/A,,Partly Cloudy,0,2012-10-07 08:36:00
12:56 AM,32.0,30.2,93,30.09,3.0,Calm,Calm,-,N/A,,Scattered Clouds,0,2012-10-07 08:56:00
1:16 AM,32.0,30.2,93,30.09,0.8,Calm,Calm,-,N/A,,Unknown,0,2012-10-07 09:16:00
1:36 AM,30.2,28.4,93,30.09,0.5,Calm,Calm,-,N/A,,Mostly Cloudy,0,2012-10-07 09:36:00
1:56 AM,32.0,30.2,93,30.09,0.5,Calm,Calm,-,N/A,,Mostly Cloudy,0,2012-10-07 09:56:00
2:16 AM,33.8,33.8,100,30.10,1.2,Calm,Calm,-,N/A,,Overcast,0,2012-10-07 10:16:00
2:36 AM,33.8,33.8,100,30.10,1.0,East,3.5,-,N/A,,Overcast,90,2012-10-07 10:36:00
2:56 AM,39.2,37.4,93,30.11,6.0,East,5.8,-,N/A,,Mostly Cloudy,90,2012-10-07 10:56:00
3:16 AM,37.4,35.6,93,30.11,3.0,East,3.5,-,N/A,,Overcast,80,2012-10-07 11:16:00
3:36 AM,39.2,39.2,100,30.11,3.0,East,4.6,-,N/A,,Overcast,80,2012-10-07 11:36:00
3:56 AM,37.4,37.4,100,30.11,2.5,East,4.6,-,N/A,,Overcast,90,2012-10-07 11:56:00
4:16 AM,37.4,37.4,100,30.11,3.0,East,4.6,-,N/A,,Overcast,90,2012-10-07 12:16:00
4:36 AM,39.2,37.4,93,30.11,4.0,East,4.6,-,N/A,,Overcast,90,2012-10-07 12:36:00
4:56 AM,39.2,37.4,93,30.11,4.0,East,4.6,-,N/A,,Overcast,90,2012-10-07 12:56:00
5:16 AM,39.2,39.2,100,30.11,5.0,East,6.9,-,N/A,,Overcast,90,2012-10-07 13:16:00
5:36 AM,39.2,39.2,100,30.11,5.0,East,5.8,-,N/A,,Overcast,80,2012-10-07 13:36:00
5:56 AM,39.2,37.4,93,30.11,7.0,ENE,9.2,-,N/A,,Overcast,60,2012-10-07 13:56:00
6:16 AM,41.0,37.4,87,30.11,7.0,East,10.4,-,N/A,,Overcast,80,2012-10-07 14:16:00
6:36 AM,41.0,37.4,87,30.11,7.0,East,8.1,-,N/A,,Overcast,80,2012-10-07 14:36:00
6:56 AM,41.0,37.4,87,30.11,7.0,ENE,9.2,-,N/A,,Overcast,70,2012-10-07 14:56:00
7:16 AM,41.0,37.4,87,30.10,7.0,ENE,9.2,-,N/A,,Overcast,70,2012-10-07 15:16:00
7:36 AM,41.0,37.4,87,30.11,8.0,ENE,10.4,-,N/A,,Overcast,70,2012-10-07 15:36:00
7:56 AM,42.8,37.4,81,30.11,8.0,ENE,10.4,-,N/A,,Overcast,60,2012-10-07 15:56:00
8:16 AM,42.8,37.4,81,30.11,8.0,ENE,12.7,-,N/A,,Overcast,60,2012-10-07 16:16:00
8:36 AM,41.0,37.4,87,30.11,7.0,ENE,13.8,-,N/A,,Overcast,60,2012-10-07 16:36:00
8:56 AM,41.0,37.4,87,30.11,7.0,ENE,11.5,-,N/A,,Overcast,60,2012-10-07 16:56:00
9:36 AM,41.0,37.4,87,30.11,5.0,ENE,16.1,-,N/A,,Overcast,60,2012-10-07 17:36:00
9:56 AM,41.0,37.4,87,30.11,5.0,ENE,12.7,-,N/A,,Overcast,60,2012-10-07 17:56:00
10:16 AM,41.0,37.4,87,30.13,5.0,ENE,11.5,-,N/A,,Overcast,60,2012-10-07 18:16:00
10:36 AM,42.8,37.4,81,30.13,5.0,ENE,15.0,-,N/A,,Mostly Cloudy,60,2012-10-07 18:36:00
10:56 AM,42.8,37.4,81,30.13,5.0,ENE,15.0,19.6,N/A,,Overcast,60,2012-10-07 18:56:00
11:16 AM,42.8,37.4,81,30.13,6.0,NE,13.8,-,N/A,,Overcast,50,2012-10-07 19:16:00
11:36 AM,42.8,37.4,81,30.13,6.0,NE,15.0,-,N/A,,Overcast,50,2012-10-07 19:36:00
12:16 PM,42.8,37.4,81,30.14,7.0,ENE,17.3,-,N/A,,Overcast,60,2012-10-07 20:16:00
12:36 PM,42.8,37.4,81,30.13,7.0,ENE,17.3,-,N/A,,Overcast,60,2012-10-07 20:36:00
12:56 PM,42.8,37.4,81,30.14,7.0,NE,20.7,-,N/A,,Overcast,50,2012-10-07 20:56:00
1:16 PM,42.8,37.4,81,30.14,7.0,NE,16.1,-,N/A,,Overcast,50,2012-10-07 21:16:00
1:36 PM,42.8,37.4,81,30.15,7.0,NE,17.3,23.0,N/A,,Overcast,50,2012-10-07 21:36:00
1:56 PM,42.8,37.4,81,30.14,7.0,ENE,19.6,-,N/A,,Overcast,60,2012-10-07 21:56:00
2:16 PM,42.8,37.4,81,30.13,7.0,ENE,20.7,24.2,N/A,,Overcast,60,2012-10-07 22:16:00
2:36 PM,42.8,37.4,81,30.12,7.0,ENE,20.7,-,N/A,,Mostly Cloudy,60,2012-10-07 22:36:00
2:56 PM,42.8,37.4,81,30.12,7.0,NE,20.7,25.3,N/A,,Overcast,50,2012-10-07 22:56:00
3:16 PM,42.8,37.4,81,30.12,7.0,NE,19.6,-,N/A,,Overcast,50,2012-10-07 23:16:00
3:36 PM,42.8,37.4,81,30.12,7.0,NE,19.6,25.3,N/A,,Overcast,50,2012-10-07 23:36:00
3:56 PM,42.8,37.4,81,30.12,7.0,NE,17.3,23.0,N/A,,Overcast,50,2012-10-07 23:56:00
4:16 PM,42.8,37.4,81,30.11,8.0,NE,20.7,-,N/A,,Overcast,50,2012-10-08 00:16:00
4:36 PM,42.8,37.4,81,30.10,8.0,NE,23.0,29.9,N/A,,Overcast,50,2012-10-08 00:36:00
4:56 PM,42.8,37.4,81,30.10,7.0,NE,19.6,25.3,N/A,,Overcast,50,2012-10-08 00:56:00
5:16 PM,42.8,37.4,81,30.10,9.0,NE,23.0,29.9,N/A,,Overcast,50,2012-10-08 01:16:00
5:36 PM,41.0,37.4,87,30.09,5.0,NE,23.0,28.8,N/A,,Overcast,50,2012-10-08 01:36:00
5:56 PM,41.0,37.4,87,30.09,5.0,NE,21.9,31.1,N/A,,Overcast,50,2012-10-08 01:56:00
6:16 PM,41.0,37.4,87,30.09,4.0,NE,24.2,31.1,N/A,,Overcast,50,2012-10-08 02:16:00
6:36 PM,41.0,37.4,87,30.10,3.0,NE,25.3,28.8,N/A,,Overcast,50,2012-10-08 02:36:00
6:56 PM,41.0,37.4,87,30.10,4.0,NE,24.2,31.1,N/A,,Overcast,50,2012-10-08 02:56:00
7:16 PM,41.0,37.4,87,30.11,3.0,NE,25.3,29.9,N/A,,Overcast,50,2012-10-08 03:16:00
7:36 PM,41.0,37.4,87,30.12,2.5,NE,23.0,29.9,N/A,,Overcast,50,2012-10-08 03:36:00
7:56 PM,41.0,37.4,87,30.10,3.0,NE,25.3,33.4,N/A,,Overcast,50,2012-10-08 03:56:00
8:16 PM,41.0,37.4,87,30.10,2.5,NE,24.2,33.4,N/A,,Overcast,50,2012-10-08 04:16:00
8:36 PM,39.2,37.4,93,30.10,4.0,NE,27.6,36.8,N/A,,Overcast,50,2012-10-08 04:36:00
8:56 PM,41.0,37.4,87,30.11,4.0,NE,27.6,32.2,N/A,,Overcast,40,2012-10-08 04:56:00
9:16 PM,39.2,37.4,93,30.11,3.0,NE,26.5,35.7,N/A,,Overcast,50,2012-10-08 05:16:00
9:36 PM,39.2,37.4,93,30.12,5.0,NE,24.2,32.2,N/A,,Overcast,40,2012-10-08 05:36:00
9:56 PM,41.0,37.4,87,30.13,5.0,NE,23.0,32.2,N/A,,Overcast,40,2012-10-08 05:56:00
10:16 PM,39.2,37.4,93,30.14,4.0,NE,20.7,31.1,N/A,,Overcast,40,2012-10-08 06:16:00
10:36 PM,39.2,37.4,93,30.14,4.0,NE,24.2,28.8,N/A,,Overcast,40,2012-10-08 06:36:00
10:56 PM,39.2,37.4,93,30.14,3.0,NE,26.5,31.1,N/A,,Overcast,40,2012-10-08 06:56:00
11:16 PM,39.2,37.4,93,30.15,5.0,NNE,21.9,31.1,N/A,,Overcast,30,2012-10-08 07:16:00
11:36 PM,39.2,37.4,93,30.15,5.0,NE,24.2,31.1,N/A,,Overcast,40,2012-10-08 07:36:00
11:56 PM,39.2,37.4,93,30.15,3.0,NE,23.0,31.1,N/A,,Overcast,40,2012-10-08 07:56:00